Regional Weather Roundup
Issued by NWS Cleveland, OH

Home | Current Version | Previous Version | Graphics & Text | Print | Product List | Glossary On
Versions: 1 2 3 4 5 6 7 8 9 10 11 12 13 14 15 16 17 18 19 20 21 22 23 24 25 26 27 28 29 30 31 32 33 34 35 36 37 38 39 40 41 42 43 44 45 46 47 48 49 50
000
ASUS41 KCLE 291910
RWRCLE
OHIO REGIONAL WEATHER ROUNDUP
NATIONAL WEATHER SERVICE CLEVELAND, OH
300 PM EDT FRI APR 29 2016

NOTE: "FAIR" INDICATES FEW OR NO CLOUDS BELOW 12,000 FEET WITH NO
SIGNIFICANT WEATHER AND/OR OBSTRUCTIONS TO VISIBILITY.

OHZ001>008-015>018-024>027-034-035-043-044-292000-
   NORTHWEST OHIO

CITY           SKY/WX    TMP DP  RH WIND       PRES   REMARKS
DEFIANCE       CLOUDY    56  41  57 CALM      30.07S
FINDLAY        CLOUDY    54  40  59 N6        30.06R
TOLEDO EXPRESS CLOUDY    54  39  57 N6        30.07R
TOLEDO EXEC    MOSUNNY   53  40  61 NE10      30.08S
LIMA           CLOUDY    50  46  86 N8        30.06S FOG
$$

OHZ009>014-019>023-028>033-038-089-292000-
   NORTHEAST OHIO

CITY           SKY/WX    TMP DP  RH WIND       PRES   REMARKS
CLE-HOPKINS    LGT RAIN  45  42  89 N13       30.08R FOG
CLE-LAKEFRONT  LGT RAIN  44  42  93 N16       30.06R FOG
CUY CO. ARPT   FOG       48  45  87 N12       30.06R VSB 1
LORAIN-ELYRIA  CLOUDY    43  39  86 N12       30.07R
ASHTABULA      LGT RAIN  43  41  93 N8        30.05R
AKRON-CANTON   CLOUDY    51  47  86 NW10      30.02R FOG
WOOSTER        CLOUDY    48  45  89 N14       30.04R
MANSFIELD      CLOUDY    47  45  93 NW10      30.05R
YOUNGSTOWN     DRIZZLE   49  47  93 NW3       30.00S FOG
$$

OHZ042-051>053-060>062-070>072-077>081-292000-
  SOUTHWEST OHIO

CITY           SKY/WX    TMP DP  RH WIND       PRES   REMARKS
CINC-COVINGTON PTSUNNY   68  49  50 NW12      30.03S
CINC-LUNKEN    CLOUDY    68  51  54 W8        30.02S
HAMILTON       CLOUDY    67  49  52 NW10      30.03S
DAYTON         CLOUDY    58  49  72 N12       30.05S
WRIGHT-PAT AFB PTSUNNY   59  52  77 NW8       30.03S
DAYTON GENERAL CLOUDY    62  48  60 NW7       30.03R
WILMINGTON     CLOUDY    62  50  64 NW10      30.02R
$$

OHZ036-037-039>041-045>050-054>059-063>069-073>076-082>088-292000-
  CENTRAL AND SOUTHEAST OHIO

CITY           SKY/WX    TMP DP  RH WIND       PRES   REMARKS
COLUMBUS       CLOUDY    58  48  69 NW7       30.02F
OSU AIRPORT    CLOUDY    60  48  64 NW9       30.02F
BOLTON FIELD   CLOUDY    61  50  67 NW7       30.03F
RICKENBACK AFB CLOUDY    58  50  73 N6        30.02F
NEWARK         CLOUDY    60  49  66 NW8       30.01F
MARION         CLOUDY    53  46  77 N13       30.05S
LANCASTER      CLOUDY    58  50  75 W9        30.02F
ZANESVILLE     CLOUDY    61  51  70 W8        30.01F
NEW PHILLY     CLOUDY    54  49  83 W7        30.02R
$$



USA.gov is the U.S. government's official web portal to all federal, state and local government web resources and services.